Regional Weather Roundup
Issued by NWS

Home | Current Version | Previous Version | Text Only | Print | Product List | Glossary On
Versions: 1 2 3 4 5 6 7 8 9 10 11 12 13 14 15 16 17 18 19 20 21 22 23 24 25 26 27 28 29 30 31 32 33 34 35 36 37 38 39 40 41 42 43 44 45 46 47 48 49 50
000
ASUS46 KSEW 281410
RWRWA

WASHINGTON REGIONAL WEATHER ROUNDUP
NATIONAL WEATHER SERVICE SEATTLE WA
700 AM PDT THU MAY 28 2015

NOTE:"FAIR" INDICATES FEW OR NO CLOUDS BELOW 12,000 FEET WITH NO
SIGNIFICANT WEATHER AND/OR OBSTRUCTIONS TO VISIBILITY.

WAZ505-507>509-281500-
SEATTLE, TACOMA, EVERETT, AND VICINITY

CITY           SKY/WX    TMP DP  RH WIND       PRES   REMARKS
EVERETT        FOG       53  52  96 CALM      30.09R VSB 1/4
BOEING FIELD   SUNNY     59  52  77 W3        30.08R
RENTON         SUNNY     59  53  80 S3        30.08R
SEATAC AIRPORT MOSUNNY   56  53  90 CALM      30.09R
JBLM-MCCHORD   MOSUNNY   54  54 100 VRB2      30.09R
PUYALLUP       FAIR      54  54 100 CALM      30.09R
BREMERTON      CLOUDY    52  52 100 CALM      30.10F VSB<1/4
JBLM-FT LEWIS  CLOUDY    52  52 100 W1        30.08S FOG
TACOMA NARROWS FOG       51  51 100 CALM      30.10R VSB<1/4
$$

WAZ001-503-506-510-514-515-281500-
NORTH INTERIOR

CITY           SKY/WX    TMP DP  RH WIND       PRES   REMARKS
BELLINGHAM     SUNNY     57  54  89 S3        30.07R
FRIDAY HARBOR  FOG       49  49 100 CALM      30.09R VSB<1/4
EASTSOUND      SUNNY     54  50  87 MISG      30.06S
PORT ANGELES   FOG       50  49  96 CALM      30.09R VSB<1/4
PORT TOWNSEND  FOG       50  50 100 CALM      30.08S VSB<1/4
NAS WHIDBEY    FOG       52  50  93 SW6       30.13R VSB 1/8
ARLINGTON        N/A     54  48  82 N3        30.09R
BURLINGTON     SUNNY     52  52 100 S3        30.09R
$$

WAZ020-022-039-040-504-511-512-281500-
SOUTHWEST INTERIOR

CITY           SKY/WX    TMP DP  RH WIND       PRES   REMARKS
SHELTON        CLOUDY    49  48  97 W7        30.07R FOG
OLYMPIA        FOG       50  49  96 CALM      30.10R VSB 1
CHEHALIS       CLOUDY    54  52  94 CALM      30.09S
KELSO          CLOUDY    55  48  76 N3        30.12S
VANCOUVER      CLOUDY    54  52  93 NW3       30.07R
SCAPPOOSE, OR  SUNNY     55  51  86 CALM      30.07R
PORTLAND, OR   PTSUNNY   54  53  97 NW5       30.08R
$$

WAZ021-516-517-281500-
WASHINGTON COAST

CITY           SKY/WX    TMP DP  RH WIND       PRES   REMARKS
FORKS          FOG       49  49 100 CALM      30.09R VSB 1/4
HOQUIAM        CLOUDY    52  51  97 NW5       30.10R FOG
ASTORIA, OR    CLOUDY    53  51  93 N6        30.09S
$$

WAZ019-023-024-040-518-519-281500-
CASCADE MOUNTAINS AND COLUMBIA GORGE

CITY           SKY/WX    TMP DP  RH WIND       PRES   REMARKS
TROUTDALE, OR  SUNNY     57  53  86 W5        30.06R
THE DALLES, OR SUNNY     62  53  72 CALM      30.03R
$$

WAZ026-027-041>044-520-521-281500-
EAST SLOPES

CITY           SKY/WX    TMP DP  RH WIND       PRES   REMARKS
OMAK           SUNNY     60  50  69 CALM      30.03R
WENATCHEE      SUNNY     65  50  58 W8        30.03R
ELLENSBURG     SUNNY     57  49  74 CALM      30.05R
YAKIMA         SUNNY     61  51  70 W5        30.05R
$$

WAZ028-034-035-281500-
COLUMBIA BASIN

CITY           SKY/WX    TMP DP  RH WIND       PRES   REMARKS
EPHRATA        SUNNY     61  52  72 NE3       30.01R
MOSES LAKE     SUNNY     60  51  72 CALM      30.02R
PASCO          SUNNY     61  50  67 E3        30.02R
HERMISTON, OR  SUNNY     60  50  69 SE5       30.03R
$$

WAZ036>038-281500-
NORTHEAST WASHINGTON

CITY           SKY/WX    TMP DP  RH WIND       PRES   REMARKS
SPOKANE GEIGER PTSUNNY   56  49  77 S8        30.06R
SPOKANE FELTS  MOSUNNY   57  52  83 N3        30.07R
FAIRCHILD AFB  PTSUNNY   53  50  90 SE2       30.06R
COEURDALENE,ID PTSUNNY   57  52  82 S9        30.07R
DEER PARK      MOSUNNY   56  52  86 CALM      30.07R
$$

WAZ029>033-281500-
SOUTHEAST WASHINGTON

CITY           SKY/WX    TMP DP  RH WIND       PRES   REMARKS
PULLMAN        SUNNY     56  49  77 E9        30.11R
LEWISTON, ID   SUNNY     57  51  80 E5        30.09R
WALLA WALLA    SUNNY     65  49  56 E6        30.03R
PENDLETON, OR  SUNNY     57  47  69 SE7       30.05R
$$


USA.gov is the U.S. government's official web portal to all federal, state and local government web resources and services.